Flag for Mexico Weather past 2 weeks in Merida, Yucatán, Mexico

Now
86 °F

Overcast.


Feels Like: 93 °F
Forecast: 78 / 99 °F
Wind: 15 mph from East

Location: Aerop. Internacional Merida - Yuc

Current Time: May 23, 2015 at 11:01:15 AM

Latest Report: May 23, 2015 at 9:45 AM


Visibility: 7 mi

Pressure: 30.09 "Hg

Humidity: 66%

Dew point: 73 °F

Location of MeridaLocation

Historic Weather in Merida — Graph

°F

Merida temperature yesterday

Maximum temperature yesterday: 99 °F (at 1:43 PM)
Minimum temperature yesterday: 77 °F (at 5:44 AM)
Average temperature yesterday: 85 °F

Past Weeks' High & Low Weather Summary

 TemperatureHumidityPressure
High102 °F (May 10, 2:43 PM)89% (May 9, 5:52 AM)30.10 "Hg (May 9, 5:52 AM)
Low75 °F (May 11, 4:55 AM)21% (May 13, 1:50 PM)29.80 "Hg (May 9, 5:43 PM)
Average86 °F60%29.95 "Hg
* Reported May 8 9:45 AM — May 23 9:45 AM, Merida, Weather by CustomWeather, © 2015

Note: Actual official high and low records may vary slightly from our data, if they occured in-between our weather recording intervals... More about our weather records

Advertising

Merida weather history for previous 24 hours

 ConditionsComfort  
Time TempWeatherWind HumidityBarometerVisibility
9:45 AM
Sat, May 23
86 °FOvercast.15 mph66%30.09 "Hg7 mi
8:46 AM84 °FHigh level clouds.16 mph70%30.08 "Hg7 mi
7:47 AM81 °FPartly sunny.7 mph79%30.07 "Hg6 mi
6:51 AM77 °FPassing clouds.8 mph83%30.08 "Hg7 mi
5:51 AM77 °FClear.9 mph83%30.05 "Hg7 mi
4:51 AM79 °FClear.7 mph84%30.05 "Hg7 mi
3:54 AM79 °FClear.12 mph84%30.10 "Hg7 mi
2:54 AM81 °FClear.9 mph79%30.03 "Hg7 mi
1:54 AM81 °FClear.14 mph74%30.05 "Hg7 mi
12:54 AM82 °FPassing clouds.17 mph70%30.06 "Hg7 mi
11:48 PM
Fri, May 22
82 °FClear.13 mph70%30.06 "Hg7 mi
10:51 PM82 °FClear.12 mph70%30.05 "Hg7 mi
9:48 PM82 °FClear.8 mph70%30.00 "Hg7 mi
8:46 PM82 °FClear.13 mph70%30.00 "Hg7 mi
7:43 PM84 °FScattered clouds.12 mph62%29.97 "Hg7 mi
6:47 PM86 °FPartly sunny.21 mph59%29.96 "Hg7 mi
5:47 PM90 °FScattered clouds.7 mph55%29.95 "Hg7 mi
4:45 PM91 °FScattered clouds.6 mph52%29.96 "Hg7 mi
3:45 PM93 °FScattered clouds.8 mph47%29.97 "Hg7 mi
1:43 PM99 °FBroken clouds.9 mph31%30.00 "Hg7 mi
12:45 PM97 °FBroken clouds.6 mph37%30.01 "Hg7 mi
Weather by CustomWeather, © 2015

See weather overviewHow to use our weather pages